Tracking 22283 objects as of 28-Jan-2021
HD Live streaming from Space Station
objects crossing your sky now

AUREOLE 2

Track AUREOLE 2 now!
10-day predictions
AUREOLE 2 is classified as:


NORAD ID: 7003
Int'l Code: 1973-107A
Perigee: 372.6 km
Apogee: 902.6 km
Inclination: 73.9 °
Period: 97.3 minutes
Semi major axis: 7008 km
RCS: 2.1042 m2 (large)
Launch date: December 26, 1973
Source: France (FR)
Launch site: PLESETSK MISSILE AND SPACE COMPLEX (PKMTR)
aabbcc
Your satellite tracking list
Your tracking list is empty




NASA's NSSDC Master Catalog

Two Line Element Set (TLE):
1 07003U 73107A   21027.90465467  .00003645  00000-0  14037-3 0  9997
2 07003  73.9276 290.6862 0378084 335.3487  23.0011 14.79644084408413
Source of the keplerian elements: AFSPC